This is the latest recevied weather packets stored in our database for station/object DB0OHA-13. If no packets are shown the sender has not sent any weather packets the latest 10 day(s).
| Time | Temp. | Humidity | Pressure | Rain* | Wind** | Luminosity | Snow |
|---|---|---|---|---|---|---|---|
| 1777651871 | 21.11° C | 39% | 1025.1 hPa | 0 mm | - | 330 W/m² | - |
| 1777651271 | 21.67° C | 40% | 1025.2 hPa | 0 mm | - | 355 W/m² | - |
| 1777650671 | 21.67° C | 38% | 1025.3 hPa | 0 mm | - | 379 W/m² | - |
| 1777650071 | 21.67° C | 38% | 1025.5 hPa | 0 mm | - | 402 W/m² | - |
| 1777649471 | 21.67° C | 37% | 1025.5 hPa | 0 mm | - | 427 W/m² | - |
| 1777648871 | 21.67° C | 39% | 1025.6 hPa | 0 mm | - | 451 W/m² | - |
| 1777648271 | 21.67° C | 37% | 1025.8 hPa | 0 mm | - | 474 W/m² | - |
| 1777647671 | 21.67° C | 38% | 1026 hPa | 0 mm | - | 498 W/m² | - |
| 1777647071 | 21.67° C | 38% | 1026.1 hPa | 0 mm | - | 517 W/m² | - |
| 1777646471 | 21.67° C | 38% | 1026.2 hPa | 0 mm | - | 541 W/m² | - |
| 1777645870 | 21.67° C | 38% | 1026.3 hPa | 0 mm | - | 561 W/m² | - |
| 1777645270 | 21.67° C | 41% | 1026.4 hPa | 0 mm | - | 581 W/m² | - |
| 1777644070 | 21.67° C | 38% | 1026.6 hPa | 0 mm | - | 619 W/m² | - |
| 1777643470 | 21.67° C | 36% | 1026.7 hPa | 0 mm | - | 638 W/m² | - |
| 1777642870 | 21.67° C | 37% | 1026.8 hPa | 0 mm | - | 654 W/m² | - |
| 1777641670 | 21.11° C | 38% | 1026.9 hPa | 0 mm | - | 681 W/m² | - |
| 1777641069 | 21.11° C | 38% | 1027.2 hPa | 0 mm | - | 705 W/m² | - |
| 1777640470 | 21.67° C | 39% | 1027.3 hPa | 0 mm | - | 709 W/m² | - |
| 1777639870 | 21.11° C | 37% | 1027.4 hPa | 0 mm | - | 722 W/m² | - |
| 1777639269 | 21.67° C | 40% | 1027.6 hPa | 0 mm | - | 730 W/m² | - |
| 1777638669 | 20.56° C | 39% | 1027.6 hPa | 0 mm | - | 739 W/m² | - |
| 1777638069 | 20.56° C | 40% | 1027.7 hPa | 0 mm | - | 747 W/m² | - |
| 1777636274 | 20° C | 41% | 1028 hPa | 0 mm | - | 763 W/m² | - |
| 1777635674 | 20.56° C | 40% | 1028.1 hPa | 0 mm | - | 766 W/m² | - |
| 1777635074 | 20° C | 44% | 1028.1 hPa | 0 mm | - | 767 W/m² | - |
* Rain latest hour (hover to see other rain measurements)
** Current wind speed in m/s (hover to see current wind gust speed)